KAZEOSAT 1

Last updated on Fri Oct 04 2024 00:02:25 GMT+0000 (Coordinated Universal Time)

1 39731U 14024A 24277.52776578 .00001605 00000+0 50198-3 0 9990 2 39731 98.3870 352.1579 0001062 90.9574 269.1737 14.42036889548967
UTC large
Height (km)
Speed (km/s)
/
Latitude / Longitude
Inclination (degrees)
Orbital Period (minutes)
Azimuth
Elevation
Range (km)
Doppler Factor

Next 0 passes for location: London (51.5072 / 0.1276)

Sorry there are no passes over London.